Date_Time,Julian_Date,Latitude,Longitude,Instrument_Depth,Water_Temperature
(yyyy-mm-dd hh:mn:ss UTC),(JD),(+ deg. North),(+ deg. East),(m),(deg. C)
1982-02-17 14:00:00 UTC,2445018.083333,29.7697,-93.3439,0037,13.3000
1982-02-17 14:30:00 UTC,2445018.104167,29.7697,-93.3439,0037,13.3000
1982-02-17 15:00:00 UTC,2445018.125000,29.7697,-93.3439,0037,13.3000
1982-02-17 15:30:00 UTC,2445018.145833,29.7697,-93.3439,0037,13.3000
1982-02-17 16:00:00 UTC,2445018.166667,29.7697,-93.3439,0037,13.3000
1982-02-17 16:30:00 UTC,2445018.187500,29.7697,-93.3439,0037,13.2000
1982-02-17 17:00:00 UTC,2445018.208333,29.7697,-93.3439,0037,12.9000
1982-02-17 17:30:00 UTC,2445018.229167,29.7697,-93.3439,0037,12.4000
1982-02-17 18:00:00 UTC,2445018.250000,29.7697,-93.3439,0037,12.2000
1982-02-17 18:30:00 UTC,2445018.270833,29.7697,-93.3439,0037,12.2000
1982-02-17 19:00:00 UTC,2445018.291667,29.7697,-93.3439,0037,12.3000
1982-02-17 19:30:00 UTC,2445018.312500,29.7697,-93.3439,0037,12.3000
1982-02-17 20:00:00 UTC,2445018.333333,29.7697,-93.3439,0037,12.3000
1982-02-17 20:30:00 UTC,2445018.354167,29.7697,-93.3439,0037,12.4000
1982-02-17 21:00:00 UTC,2445018.375000,29.7697,-93.3439,0037,12.4000
1982-02-17 21:30:00 UTC,2445018.395833,29.7697,-93.3439,0037,12.4000
1982-02-17 22:00:00 UTC,2445018.416667,29.7697,-93.3439,0037,12.5000
1982-02-17 22:30:00 UTC,2445018.437500,29.7697,-93.3439,0037,12.6000
1982-02-17 23:00:00 UTC,2445018.458333,29.7697,-93.3439,0037,12.7000
1982-02-17 23:30:00 UTC,2445018.479167,29.7697,-93.3439,0037,12.8000
1982-02-18 00:00:00 UTC,2445018.500000,29.7697,-93.3439,0037,12.8000
1982-02-18 00:30:00 UTC,2445018.520833,29.7697,-93.3439,0037,12.9000
1982-02-18 01:00:00 UTC,2445018.541667,29.7697,-93.3439,0037,13.0000
1982-02-18 01:30:00 UTC,2445018.562500,29.7697,-93.3439,0037,13.0000
1982-02-18 02:00:00 UTC,2445018.583333,29.7697,-93.3439,0037,13.0000
1982-02-18 02:30:00 UTC,2445018.604167,29.7697,-93.3439,0037,12.9000
1982-02-18 03:00:00 UTC,2445018.625000,29.7697,-93.3439,0037,12.9000
1982-02-18 03:30:00 UTC,2445018.645833,29.7697,-93.3439,0037,12.9000
1982-02-18 04:00:00 UTC,2445018.666667,29.7697,-93.3439,0037,12.9000
1982-02-18 04:30:00 UTC,2445018.687500,29.7697,-93.3439,0037,12.8000
1982-02-18 05:00:00 UTC,2445018.708333,29.7697,-93.3439,0037,12.8000
1982-02-18 05:30:00 UTC,2445018.729167,29.7697,-93.3439,0037,12.7000
1982-02-18 06:00:00 UTC,2445018.750000,29.7697,-93.3439,0037,12.7000
1982-02-18 06:30:00 UTC,2445018.770833,29.7697,-93.3439,0037,12.7000
1982-02-18 07:00:00 UTC,2445018.791667,29.7697,-93.3439,0037,12.7000
1982-02-18 07:30:00 UTC,2445018.812500,29.7697,-93.3439,0037,12.7000
1982-02-18 08:00:00 UTC,2445018.833333,29.7697,-93.3439,0037,12.7000
1982-02-18 08:30:00 UTC,2445018.854167,29.7697,-93.3439,0037,12.7000
1982-02-18 09:00:00 UTC,2445018.875000,29.7697,-93.3439,0037,12.9000
1982-02-18 09:30:00 UTC,2445018.895833,29.7697,-93.3439,0037,13.0000
1982-02-18 10:00:00 UTC,2445018.916667,29.7697,-93.3439,0037,13.2000
1982-02-18 10:30:00 UTC,2445018.937500,29.7697,-93.3439,0037,13.4000
1982-02-18 11:00:00 UTC,2445018.958333,29.7697,-93.3439,0037,13.6000
1982-02-18 11:30:00 UTC,2445018.979167,29.7697,-93.3439,0037,13.8000
1982-02-18 12:00:00 UTC,2445019.000000,29.7697,-93.3439,0037,14.0000
1982-02-18 12:30:00 UTC,2445019.020833,29.7697,-93.3439,0037,14.1000
1982-02-18 13:00:00 UTC,2445019.041667,29.7697,-93.3439,0037,14.2000
1982-02-18 13:30:00 UTC,2445019.062500,29.7697,-93.3439,0037,14.3000
1982-02-18 14:00:00 UTC,2445019.083333,29.7697,-93.3439,0037,14.3000
1982-02-18 14:30:00 UTC,2445019.104167,29.7697,-93.3439,0037,14.4000
1982-02-18 15:00:00 UTC,2445019.125000,29.7697,-93.3439,0037,14.4000
1982-02-18 15:30:00 UTC,2445019.145833,29.7697,-93.3439,0037,14.4000
1982-02-18 16:00:00 UTC,2445019.166667,29.7697,-93.3439,0037,14.5000
1982-02-18 16:30:00 UTC,2445019.187500,29.7697,-93.3439,0037,14.4000
1982-02-18 17:00:00 UTC,2445019.208333,29.7697,-93.3439,0037,14.4000
1982-02-18 17:30:00 UTC,2445019.229167,29.7697,-93.3439,0037,14.1000
1982-02-18 18:00:00 UTC,2445019.250000,29.7697,-93.3439,0037,13.7000
1982-02-18 18:30:00 UTC,2445019.270833,29.7697,-93.3439,0037,13.4000
1982-02-18 19:00:00 UTC,2445019.291667,29.7697,-93.3439,0037,13.3000
1982-02-18 19:30:00 UTC,2445019.312500,29.7697,-93.3439,0037,13.3000
1982-02-18 20:00:00 UTC,2445019.333333,29.7697,-93.3439,0037,13.3000
1982-02-18 20:30:00 UTC,2445019.354167,29.7697,-93.3439,0037,13.3000
1982-02-18 21:00:00 UTC,2445019.375000,29.7697,-93.3439,0037,13.3000
1982-02-18 21:30:00 UTC,2445019.395833,29.7697,-93.3439,0037,13.4000
1982-02-18 22:00:00 UTC,2445019.416667,29.7697,-93.3439,0037,13.4000
1982-02-18 22:30:00 UTC,2445019.437500,29.7697,-93.3439,0037,13.6000
1982-02-18 23:00:00 UTC,2445019.458333,29.7697,-93.3439,0037,13.7000
1982-02-18 23:30:00 UTC,2445019.479167,29.7697,-93.3439,0037,13.6000
1982-02-19 00:00:00 UTC,2445019.500000,29.7697,-93.3439,0037,13.5000
1982-02-19 00:30:00 UTC,2445019.520833,29.7697,-93.3439,0037,13.5000
1982-02-19 01:00:00 UTC,2445019.541667,29.7697,-93.3439,0037,13.5000
1982-02-19 01:30:00 UTC,2445019.562500,29.7697,-93.3439,0037,13.5000
1982-02-19 02:00:00 UTC,2445019.583333,29.7697,-93.3439,0037,13.5000
1982-02-19 02:30:00 UTC,2445019.604167,29.7697,-93.3439,0037,13.6000
1982-02-19 03:00:00 UTC,2445019.625000,29.7697,-93.3439,0037,13.6000
1982-02-19 03:30:00 UTC,2445019.645833,29.7697,-93.3439,0037,13.6000
1982-02-19 04:00:00 UTC,2445019.666667,29.7697,-93.3439,0037,13.7000
1982-02-19 04:30:00 UTC,2445019.687500,29.7697,-93.3439,0037,13.8000
1982-02-19 05:00:00 UTC,2445019.708333,29.7697,-93.3439,0037,14.0000
1982-02-19 05:30:00 UTC,2445019.729167,29.7697,-93.3439,0037,14.1000
1982-02-19 06:00:00 UTC,2445019.750000,29.7697,-93.3439,0037,14.1000
1982-02-19 06:30:00 UTC,2445019.770833,29.7697,-93.3439,0037,14.2000
1982-02-19 07:00:00 UTC,2445019.791667,29.7697,-93.3439,0037,14.3000
1982-02-19 07:30:00 UTC,2445019.812500,29.7697,-93.3439,0037,14.4000
1982-02-19 08:00:00 UTC,2445019.833333,29.7697,-93.3439,0037,14.5000
1982-02-19 08:30:00 UTC,2445019.854167,29.7697,-93.3439,0037,14.6000
1982-02-19 09:00:00 UTC,2445019.875000,29.7697,-93.3439,0037,14.7000
1982-02-19 09:30:00 UTC,2445019.895833,29.7697,-93.3439,0037,14.9000
1982-02-19 10:00:00 UTC,2445019.916667,29.7697,-93.3439,0037,15.0000
1982-02-19 10:30:00 UTC,2445019.937500,29.7697,-93.3439,0037,15.1000
1982-02-19 11:00:00 UTC,2445019.958333,29.7697,-93.3439,0037,15.2000
1982-02-19 11:30:00 UTC,2445019.979167,29.7697,-93.3439,0037,15.2000
1982-02-19 12:00:00 UTC,2445020.000000,29.7697,-93.3439,0037,15.2000
1982-02-19 12:30:00 UTC,2445020.020833,29.7697,-93.3439,0037,15.3000
1982-02-19 13:00:00 UTC,2445020.041667,29.7697,-93.3439,0037,15.3000
1982-02-19 13:30:00 UTC,2445020.062500,29.7697,-93.3439,0037,15.3000
1982-02-19 14:00:00 UTC,2445020.083333,29.7697,-93.3439,0037,15.3000
1982-02-19 14:30:00 UTC,2445020.104167,29.7697,-93.3439,0037,15.3000
1982-02-19 15:00:00 UTC,2445020.125000,29.7697,-93.3439,0037,15.3000
1982-02-19 15:30:00 UTC,2445020.145833,29.7697,-93.3439,0037,15.3000
1982-02-19 16:00:00 UTC,2445020.166667,29.7697,-93.3439,0037,15.3000
1982-02-19 16:30:00 UTC,2445020.187500,29.7697,-93.3439,0037,15.3000
1982-02-19 17:00:00 UTC,2445020.208333,29.7697,-93.3439,0037,15.3000
1982-02-19 17:30:00 UTC,2445020.229167,29.7697,-93.3439,0037,15.3000
1982-02-19 18:00:00 UTC,2445020.250000,29.7697,-93.3439,0037,15.0000
1982-02-19 18:30:00 UTC,2445020.270833,29.7697,-93.3439,0037,14.5000
1982-02-19 19:00:00 UTC,2445020.291667,29.7697,-93.3439,0037,14.1000
1982-02-19 19:30:00 UTC,2445020.312500,29.7697,-93.3439,0037,13.8000
1982-02-19 20:00:00 UTC,2445020.333333,29.7697,-93.3439,0037,13.7000
1982-02-19 20:30:00 UTC,2445020.354167,29.7697,-93.3439,0037,13.7000
1982-02-19 21:00:00 UTC,2445020.375000,29.7697,-93.3439,0037,13.8000
1982-02-19 21:30:00 UTC,2445020.395833,29.7697,-93.3439,0037,13.8000
1982-02-19 22:00:00 UTC,2445020.416667,29.7697,-93.3439,0037,13.8000
1982-02-19 22:30:00 UTC,2445020.437500,29.7697,-93.3439,0037,13.8000
1982-02-19 23:00:00 UTC,2445020.458333,29.7697,-93.3439,0037,13.9000
1982-02-19 23:30:00 UTC,2445020.479167,29.7697,-93.3439,0037,14.0000
1982-02-20 00:00:00 UTC,2445020.500000,29.7697,-93.3439,0037,13.9000
1982-02-20 00:30:00 UTC,2445020.520833,29.7697,-93.3439,0037,13.9000
1982-02-20 01:00:00 UTC,2445020.541667,29.7697,-93.3439,0037,13.8000
1982-02-20 01:30:00 UTC,2445020.562500,29.7697,-93.3439,0037,13.7000
1982-02-20 02:00:00 UTC,2445020.583333,29.7697,-93.3439,0037,13.7000
1982-02-20 02:30:00 UTC,2445020.604167,29.7697,-93.3439,0037,13.7000
1982-02-20 03:00:00 UTC,2445020.625000,29.7697,-93.3439,0037,13.7000
1982-02-20 03:30:00 UTC,2445020.645833,29.7697,-93.3439,0037,13.7000
1982-02-20 04:00:00 UTC,2445020.666667,29.7697,-93.3439,0037,13.7000
1982-02-20 04:30:00 UTC,2445020.687500,29.7697,-93.3439,0037,13.7000
1982-02-20 05:00:00 UTC,2445020.708333,29.7697,-93.3439,0037,13.6000
1982-02-20 05:30:00 UTC,2445020.729167,29.7697,-93.3439,0037,13.6000
1982-02-20 06:00:00 UTC,2445020.750000,29.7697,-93.3439,0037,13.6000
1982-02-20 06:30:00 UTC,2445020.770833,29.7697,-93.3439,0037,13.6000
1982-02-20 07:00:00 UTC,2445020.791667,29.7697,-93.3439,0037,13.6000
1982-02-20 07:30:00 UTC,2445020.812500,29.7697,-93.3439,0037,13.6000
1982-02-20 08:00:00 UTC,2445020.833333,29.7697,-93.3439,0037,13.6000
1982-02-20 08:30:00 UTC,2445020.854167,29.7697,-93.3439,0037,13.6000
1982-02-20 09:00:00 UTC,2445020.875000,29.7697,-93.3439,0037,13.6000
1982-02-20 09:30:00 UTC,2445020.895833,29.7697,-93.3439,0037,13.8000
1982-02-20 10:00:00 UTC,2445020.916667,29.7697,-93.3439,0037,14.0000
1982-02-20 10:30:00 UTC,2445020.937500,29.7697,-93.3439,0037,14.1000
1982-02-20 11:00:00 UTC,2445020.958333,29.7697,-93.3439,0037,14.1000
1982-02-20 11:30:00 UTC,2445020.979167,29.7697,-93.3439,0037,14.3000
1982-02-20 12:00:00 UTC,2445021.000000,29.7697,-93.3439,0037,14.5000
1982-02-20 12:30:00 UTC,2445021.020833,29.7697,-93.3439,0037,14.7000
1982-02-20 13:00:00 UTC,2445021.041667,29.7697,-93.3439,0037,14.8000
1982-02-20 13:30:00 UTC,2445021.062500,29.7697,-93.3439,0037,14.8000
1982-02-20 14:00:00 UTC,2445021.083333,29.7697,-93.3439,0037,14.9000
1982-02-20 14:30:00 UTC,2445021.104167,29.7697,-93.3439,0037,14.9000
1982-02-20 15:00:00 UTC,2445021.125000,29.7697,-93.3439,0037,14.9000
1982-02-20 15:30:00 UTC,2445021.145833,29.7697,-93.3439,0037,15.0000
1982-02-20 16:00:00 UTC,2445021.166667,29.7697,-93.3439,0037,15.0000
1982-02-20 16:30:00 UTC,2445021.187500,29.7697,-93.3439,0037,15.0000
1982-02-20 17:00:00 UTC,2445021.208333,29.7697,-93.3439,0037,15.0000
1982-02-20 17:30:00 UTC,2445021.229167,29.7697,-93.3439,0037,15.0000
1982-02-20 18:00:00 UTC,2445021.250000,29.7697,-93.3439,0037,15.0000
1982-02-20 18:30:00 UTC,2445021.270833,29.7697,-93.3439,0037,14.7000
1982-02-20 19:00:00 UTC,2445021.291667,29.7697,-93.3439,0037,14.2000
1982-02-20 19:30:00 UTC,2445021.312500,29.7697,-93.3439,0037,13.9000
1982-02-20 20:00:00 UTC,2445021.333333,29.7697,-93.3439,0037,13.7000
1982-02-20 20:30:00 UTC,2445021.354167,29.7697,-93.3439,0037,13.6000
1982-02-20 21:00:00 UTC,2445021.375000,29.7697,-93.3439,0037,13.6000
1982-02-20 21:30:00 UTC,2445021.395833,29.7697,-93.3439,0037,13.6000
1982-02-20 22:00:00 UTC,2445021.416667,29.7697,-93.3439,0037,13.5000
1982-02-20 22:30:00 UTC,2445021.437500,29.7697,-93.3439,0037,13.5000
1982-02-20 23:00:00 UTC,2445021.458333,29.7697,-93.3439,0037,13.5000
1982-02-20 23:30:00 UTC,2445021.479167,29.7697,-93.3439,0037,13.5000
1982-02-21 00:00:00 UTC,2445021.500000,29.7697,-93.3439,0037,13.6000
1982-02-21 00:30:00 UTC,2445021.520833,29.7697,-93.3439,0037,13.6000
1982-02-21 01:00:00 UTC,2445021.541667,29.7697,-93.3439,0037,13.6000
1982-02-21 01:30:00 UTC,2445021.562500,29.7697,-93.3439,0037,13.6000
1982-02-21 02:00:00 UTC,2445021.583333,29.7697,-93.3439,0037,13.5000
1982-02-21 02:30:00 UTC,2445021.604167,29.7697,-93.3439,0037,13.5000
1982-02-21 03:00:00 UTC,2445021.625000,29.7697,-93.3439,0037,13.5000
1982-02-21 03:30:00 UTC,2445021.645833,29.7697,-93.3439,0037,13.5000
1982-02-21 04:00:00 UTC,2445021.666667,29.7697,-93.3439,0037,13.5000
1982-02-21 04:30:00 UTC,2445021.687500,29.7697,-93.3439,0037,13.5000
1982-02-21 05:00:00 UTC,2445021.708333,29.7697,-93.3439,0037,13.5000
1982-02-21 05:30:00 UTC,2445021.729167,29.7697,-93.3439,0037,13.5000
1982-02-21 06:00:00 UTC,2445021.750000,29.7697,-93.3439,0037,13.5000
1982-02-21 06:30:00 UTC,2445021.770833,29.7697,-93.3439,0037,13.5000
1982-02-21 07:00:00 UTC,2445021.791667,29.7697,-93.3439,0037,13.5000
1982-02-21 07:30:00 UTC,2445021.812500,29.7697,-93.3439,0037,13.5000
1982-02-21 08:00:00 UTC,2445021.833333,29.7697,-93.3439,0037,13.5000
1982-02-21 08:30:00 UTC,2445021.854167,29.7697,-93.3439,0037,13.5000
1982-02-21 09:00:00 UTC,2445021.875000,29.7697,-93.3439,0037,13.5000
1982-02-21 09:30:00 UTC,2445021.895833,29.7697,-93.3439,0037,13.5000
1982-02-21 10:00:00 UTC,2445021.916667,29.7697,-93.3439,0037,13.5000
1982-02-21 10:30:00 UTC,2445021.937500,29.7697,-93.3439,0037,13.6000
1982-02-21 11:00:00 UTC,2445021.958333,29.7697,-93.3439,0037,13.6000
1982-02-21 11:30:00 UTC,2445021.979167,29.7697,-93.3439,0037,13.7000
1982-02-21 12:00:00 UTC,2445022.000000,29.7697,-93.3439,0037,13.9000
1982-02-21 12:30:00 UTC,2445022.020833,29.7697,-93.3439,0037,14.0000
1982-02-21 13:00:00 UTC,2445022.041667,29.7697,-93.3439,0037,14.1000
1982-02-21 13:30:00 UTC,2445022.062500,29.7697,-93.3439,0037,14.2000
1982-02-21 14:00:00 UTC,2445022.083333,29.7697,-93.3439,0037,14.3000
1982-02-21 14:30:00 UTC,2445022.104167,29.7697,-93.3439,0037,14.4000
1982-02-21 15:00:00 UTC,2445022.125000,29.7697,-93.3439,0037,14.5000
1982-02-21 15:30:00 UTC,2445022.145833,29.7697,-93.3439,0037,14.5000
1982-02-21 16:00:00 UTC,2445022.166667,29.7697,-93.3439,0037,14.5000
1982-02-21 16:30:00 UTC,2445022.187500,29.7697,-93.3439,0037,14.6000
1982-02-21 17:00:00 UTC,2445022.208333,29.7697,-93.3439,0037,14.6000
1982-02-21 17:30:00 UTC,2445022.229167,29.7697,-93.3439,0037,14.7000
1982-02-21 18:00:00 UTC,2445022.250000,29.7697,-93.3439,0037,14.8000
1982-02-21 18:30:00 UTC,2445022.270833,29.7697,-93.3439,0037,14.8000
1982-02-21 19:00:00 UTC,2445022.291667,29.7697,-93.3439,0037,14.9000
1982-02-21 19:30:00 UTC,2445022.312500,29.7697,-93.3439,0037,14.9000
1982-02-21 20:00:00 UTC,2445022.333333,29.7697,-93.3439,0037,14.9000
1982-02-21 20:30:00 UTC,2445022.354167,29.7697,-93.3439,0037,14.8000
1982-02-21 21:00:00 UTC,2445022.375000,29.7697,-93.3439,0037,14.6000
1982-02-21 21:30:00 UTC,2445022.395833,29.7697,-93.3439,0037,14.5000
1982-02-21 22:00:00 UTC,2445022.416667,29.7697,-93.3439,0037,14.5000
1982-02-21 22:30:00 UTC,2445022.437500,29.7697,-93.3439,0037,14.5000
1982-02-21 23:00:00 UTC,2445022.458333,29.7697,-93.3439,0037,14.6000
1982-02-21 23:30:00 UTC,2445022.479167,29.7697,-93.3439,0037,14.7000
1982-02-22 00:00:00 UTC,2445022.500000,29.7697,-93.3439,0037,14.8000
1982-02-22 00:30:00 UTC,2445022.520833,29.7697,-93.3439,0037,14.9000
1982-02-22 01:00:00 UTC,2445022.541667,29.7697,-93.3439,0037,14.9000
1982-02-22 01:30:00 UTC,2445022.562500,29.7697,-93.3439,0037,15.0000
1982-02-22 02:00:00 UTC,2445022.583333,29.7697,-93.3439,0037,15.0000
1982-02-22 02:30:00 UTC,2445022.604167,29.7697,-93.3439,0037,14.9000
1982-02-22 03:00:00 UTC,2445022.625000,29.7697,-93.3439,0037,14.9000
1982-02-22 03:30:00 UTC,2445022.645833,29.7697,-93.3439,0037,14.8000
1982-02-22 04:00:00 UTC,2445022.666667,29.7697,-93.3439,0037,14.8000
1982-02-22 04:30:00 UTC,2445022.687500,29.7697,-93.3439,0037,14.7000
1982-02-22 05:00:00 UTC,2445022.708333,29.7697,-93.3439,0037,14.7000
1982-02-22 05:30:00 UTC,2445022.729167,29.7697,-93.3439,0037,14.6000
1982-02-22 06:00:00 UTC,2445022.750000,29.7697,-93.3439,0037,14.5000
1982-02-22 06:30:00 UTC,2445022.770833,29.7697,-93.3439,0037,14.5000
1982-02-22 07:00:00 UTC,2445022.791667,29.7697,-93.3439,0037,14.5000
1982-02-22 07:30:00 UTC,2445022.812500,29.7697,-93.3439,0037,14.5000
1982-02-22 08:00:00 UTC,2445022.833333,29.7697,-93.3439,0037,14.4000
1982-02-22 08:30:00 UTC,2445022.854167,29.7697,-93.3439,0037,14.4000
1982-02-22 09:00:00 UTC,2445022.875000,29.7697,-93.3439,0037,14.4000
1982-02-22 09:30:00 UTC,2445022.895833,29.7697,-93.3439,0037,14.5000
1982-02-22 10:00:00 UTC,2445022.916667,29.7697,-93.3439,0037,14.6000
1982-02-22 10:30:00 UTC,2445022.937500,29.7697,-93.3439,0037,14.5000
1982-02-22 11:00:00 UTC,2445022.958333,29.7697,-93.3439,0037,14.5000
1982-02-22 11:30:00 UTC,2445022.979167,29.7697,-93.3439,0037,14.5000
1982-02-22 12:00:00 UTC,2445023.000000,29.7697,-93.3439,0037,14.5000
1982-02-22 12:30:00 UTC,2445023.020833,29.7697,-93.3439,0037,14.6000
1982-02-22 13:00:00 UTC,2445023.041667,29.7697,-93.3439,0037,14.8000
1982-02-22 13:30:00 UTC,2445023.062500,29.7697,-93.3439,0037,14.9000
1982-02-22 14:00:00 UTC,2445023.083333,29.7697,-93.3439,0037,15.1000
1982-02-22 14:30:00 UTC,2445023.104167,29.7697,-93.3439,0037,15.3000
1982-02-22 15:00:00 UTC,2445023.125000,29.7697,-93.3439,0037,15.4000
1982-02-22 15:30:00 UTC,2445023.145833,29.7697,-93.3439,0037,15.5000
1982-02-22 16:00:00 UTC,2445023.166667,29.7697,-93.3439,0037,15.6000
1982-02-22 16:30:00 UTC,2445023.187500,29.7697,-93.3439,0037,15.7000
1982-02-22 17:00:00 UTC,2445023.208333,29.7697,-93.3439,0037,15.7000
1982-02-22 17:30:00 UTC,2445023.229167,29.7697,-93.3439,0037,15.8000
1982-02-22 18:00:00 UTC,2445023.250000,29.7697,-93.3439,0037,15.8000
1982-02-22 18:30:00 UTC,2445023.270833,29.7697,-93.3439,0037,15.9000
1982-02-22 19:00:00 UTC,2445023.291667,29.7697,-93.3439,0037,15.9000
1982-02-22 19:30:00 UTC,2445023.312500,29.7697,-93.3439,0037,15.9000
1982-02-22 20:00:00 UTC,2445023.333333,29.7697,-93.3439,0037,15.7000
1982-02-22 20:30:00 UTC,2445023.354167,29.7697,-93.3439,0037,15.5000
1982-02-22 21:00:00 UTC,2445023.375000,29.7697,-93.3439,0037,15.5000
1982-02-22 21:30:00 UTC,2445023.395833,29.7697,-93.3439,0037,15.4000
1982-02-22 22:00:00 UTC,2445023.416667,29.7697,-93.3439,0037,15.3000
1982-02-22 22:30:00 UTC,2445023.437500,29.7697,-93.3439,0037,15.2000
1982-02-22 23:00:00 UTC,2445023.458333,29.7697,-93.3439,0037,15.3000
1982-02-22 23:30:00 UTC,2445023.479167,29.7697,-93.3439,0037,15.4000
1982-02-23 00:00:00 UTC,2445023.500000,29.7697,-93.3439,0037,15.5000
1982-02-23 00:30:00 UTC,2445023.520833,29.7697,-93.3439,0037,15.5000
1982-02-23 01:00:00 UTC,2445023.541667,29.7697,-93.3439,0037,15.5000
1982-02-23 01:30:00 UTC,2445023.562500,29.7697,-93.3439,0037,15.4000
1982-02-23 02:00:00 UTC,2445023.583333,29.7697,-93.3439,0037,15.3000
1982-02-23 02:30:00 UTC,2445023.604167,29.7697,-93.3439,0037,15.2000
1982-02-23 03:00:00 UTC,2445023.625000,29.7697,-93.3439,0037,15.2000
1982-02-23 03:30:00 UTC,2445023.645833,29.7697,-93.3439,0037,15.1000
1982-02-23 04:00:00 UTC,2445023.666667,29.7697,-93.3439,0037,15.1000
1982-02-23 04:30:00 UTC,2445023.687500,29.7697,-93.3439,0037,15.2000
1982-02-23 05:00:00 UTC,2445023.708333,29.7697,-93.3439,0037,15.1000
1982-02-23 05:30:00 UTC,2445023.729167,29.7697,-93.3439,0037,14.9000
1982-02-23 06:00:00 UTC,2445023.750000,29.7697,-93.3439,0037,14.8000
1982-02-23 06:30:00 UTC,2445023.770833,29.7697,-93.3439,0037,14.7000
1982-02-23 07:00:00 UTC,2445023.791667,29.7697,-93.3439,0037,14.8000
1982-02-23 07:30:00 UTC,2445023.812500,29.7697,-93.3439,0037,14.9000
1982-02-23 08:00:00 UTC,2445023.833333,29.7697,-93.3439,0037,15.0000
1982-02-23 08:30:00 UTC,2445023.854167,29.7697,-93.3439,0037,15.1000
1982-02-23 09:00:00 UTC,2445023.875000,29.7697,-93.3439,0037,15.2000
1982-02-23 09:30:00 UTC,2445023.895833,29.7697,-93.3439,0037,15.2000
1982-02-23 10:00:00 UTC,2445023.916667,29.7697,-93.3439,0037,15.0000
1982-02-23 10:30:00 UTC,2445023.937500,29.7697,-93.3439,0037,14.9000
1982-02-23 11:00:00 UTC,2445023.958333,29.7697,-93.3439,0037,14.9000
1982-02-23 11:30:00 UTC,2445023.979167,29.7697,-93.3439,0037,14.8000
1982-02-23 12:00:00 UTC,2445024.000000,29.7697,-93.3439,0037,14.7000
1982-02-23 12:30:00 UTC,2445024.020833,29.7697,-93.3439,0037,14.6000
1982-02-23 13:00:00 UTC,2445024.041667,29.7697,-93.3439,0037,14.6000
1982-02-23 13:30:00 UTC,2445024.062500,29.7697,-93.3439,0037,14.6000
1982-02-23 14:00:00 UTC,2445024.083333,29.7697,-93.3439,0037,14.7000
1982-02-23 14:30:00 UTC,2445024.104167,29.7697,-93.3439,0037,14.7000
1982-02-23 15:00:00 UTC,2445024.125000,29.7697,-93.3439,0037,14.8000
1982-02-23 15:30:00 UTC,2445024.145833,29.7697,-93.3439,0037,15.0000
1982-02-23 16:00:00 UTC,2445024.166667,29.7697,-93.3439,0037,15.1000
1982-02-23 16:30:00 UTC,2445024.187500,29.7697,-93.3439,0037,15.3000
1982-02-23 17:00:00 UTC,2445024.208333,29.7697,-93.3439,0037,15.5000
1982-02-23 17:30:00 UTC,2445024.229167,29.7697,-93.3439,0037,15.6000
1982-02-23 18:00:00 UTC,2445024.250000,29.7697,-93.3439,0037,15.7000
1982-02-23 18:30:00 UTC,2445024.270833,29.7697,-93.3439,0037,15.7000
1982-02-23 19:00:00 UTC,2445024.291667,29.7697,-93.3439,0037,15.8000
1982-02-23 19:30:00 UTC,2445024.312500,29.7697,-93.3439,0037,15.8000
1982-02-23 20:00:00 UTC,2445024.333333,29.7697,-93.3439,0037,15.9000
1982-02-23 20:30:00 UTC,2445024.354167,29.7697,-93.3439,0037,15.9000
1982-02-23 21:00:00 UTC,2445024.375000,29.7697,-93.3439,0037,16.0000
1982-02-23 21:30:00 UTC,2445024.395833,29.7697,-93.3439,0037,16.0000
1982-02-23 22:00:00 UTC,2445024.416667,29.7697,-93.3439,0037,15.9000
1982-02-23 22:30:00 UTC,2445024.437500,29.7697,-93.3439,0037,15.9000
1982-02-23 23:00:00 UTC,2445024.458333,29.7697,-93.3439,0037,15.9000
1982-02-23 23:30:00 UTC,2445024.479167,29.7697,-93.3439,0037,16.0000
1982-02-24 00:00:00 UTC,2445024.500000,29.7697,-93.3439,0037,16.2000
1982-02-24 00:30:00 UTC,2445024.520833,29.7697,-93.3439,0037,16.2000
1982-02-24 01:00:00 UTC,2445024.541667,29.7697,-93.3439,0037,16.2000
1982-02-24 01:30:00 UTC,2445024.562500,29.7697,-93.3439,0037,16.2000
1982-02-24 02:00:00 UTC,2445024.583333,29.7697,-93.3439,0037,16.2000
1982-02-24 02:30:00 UTC,2445024.604167,29.7697,-93.3439,0037,16.1000
1982-02-24 03:00:00 UTC,2445024.625000,29.7697,-93.3439,0037,16.1000
1982-02-24 03:30:00 UTC,2445024.645833,29.7697,-93.3439,0037,16.0000
1982-02-24 04:00:00 UTC,2445024.666667,29.7697,-93.3439,0037,16.0000
1982-02-24 04:30:00 UTC,2445024.687500,29.7697,-93.3439,0037,15.9000
1982-02-24 05:00:00 UTC,2445024.708333,29.7697,-93.3439,0037,15.8000
1982-02-24 05:30:00 UTC,2445024.729167,29.7697,-93.3439,0037,15.8000
1982-02-24 06:00:00 UTC,2445024.750000,29.7697,-93.3439,0037,15.8000
1982-02-24 06:30:00 UTC,2445024.770833,29.7697,-93.3439,0037,15.8000
1982-02-24 07:00:00 UTC,2445024.791667,29.7697,-93.3439,0037,15.8000
1982-02-24 07:30:00 UTC,2445024.812500,29.7697,-93.3439,0037,15.9000
1982-02-24 08:00:00 UTC,2445024.833333,29.7697,-93.3439,0037,16.1000
1982-02-24 08:30:00 UTC,2445024.854167,29.7697,-93.3439,0037,16.4000
1982-02-24 09:00:00 UTC,2445024.875000,29.7697,-93.3439,0037,16.5000
1982-02-24 09:30:00 UTC,2445024.895833,29.7697,-93.3439,0037,16.5000
1982-02-24 10:00:00 UTC,2445024.916667,29.7697,-93.3439,0037,16.5000
1982-02-24 10:30:00 UTC,2445024.937500,29.7697,-93.3439,0037,16.5000
1982-02-24 11:00:00 UTC,2445024.958333,29.7697,-93.3439,0037,16.4000
1982-02-24 11:30:00 UTC,2445024.979167,29.7697,-93.3439,0037,16.4000
1982-02-24 12:00:00 UTC,2445025.000000,29.7697,-93.3439,0037,16.3000
1982-02-24 12:30:00 UTC,2445025.020833,29.7697,-93.3439,0037,16.2000
1982-02-24 13:00:00 UTC,2445025.041667,29.7697,-93.3439,0037,16.0000
1982-02-24 13:30:00 UTC,2445025.062500,29.7697,-93.3439,0037,15.7000
1982-02-24 14:00:00 UTC,2445025.083333,29.7697,-93.3439,0037,15.5000
1982-02-24 14:30:00 UTC,2445025.104167,29.7697,-93.3439,0037,15.5000
1982-02-24 15:00:00 UTC,2445025.125000,29.7697,-93.3439,0037,15.6000
1982-02-24 15:30:00 UTC,2445025.145833,29.7697,-93.3439,0037,15.7000
1982-02-24 16:00:00 UTC,2445025.166667,29.7697,-93.3439,0037,15.7000
1982-02-24 16:30:00 UTC,2445025.187500,29.7697,-93.3439,0037,15.8000
1982-02-24 17:00:00 UTC,2445025.208333,29.7697,-93.3439,0037,15.9000
1982-02-24 17:30:00 UTC,2445025.229167,29.7697,-93.3439,0037,16.1000
1982-02-24 18:00:00 UTC,2445025.250000,29.7697,-93.3439,0037,16.2000